Overview Statistics Trail Chart Weather Telemetry Raw packets
 

This is the latest recevied weather packets stored in our database for station/object K8RRT. If no packets are shown the sender has not sent any weather packets the latest 10 day(s).

<< 35 36 37 38 39 40 41 >>
Time Temp. Humidity Pressure Rain* Wind** Luminosity Snow
1788374827 34.44° C 60% 1013.9 hPa 0 mm - 663 W/m² -
1788374523 33.89° C 56% 1014 hPa 0 mm - 657 W/m² -
1788374218 33.89° C 58% 1014.1 hPa 0 mm - 650 W/m² -
1788373914 34.44° C 58% 1013.9 hPa 0 mm - 648 W/m² -
1788373610 34.44° C 59% 1014.1 hPa 0 mm - 656 W/m² -
1788373307 33.89° C 62% 1014.2 hPa 0 mm - 663 W/m² -
1788373002 33.33° C 61% 1014.2 hPa 0 mm - 478 W/m² -
1788372702 33.33° C 60% 1014.1 hPa 0 mm - 629 W/m² -
1788372401 33.89° C 63% 1014.4 hPa 0 mm - 675 W/m² -
1788372097 33.89° C 57% 1014.5 hPa 0 mm - 668 W/m² -
1788371792 33.33° C 59% 1014.5 hPa 0 mm - 714 W/m² -
1788371488 33.89° C 59% 1014.6 hPa 0 mm - 744 W/m² -
1788371184 33.89° C 63% 1014.5 hPa 0 mm - 743 W/m² -
1788370880 33.89° C 61% 1014.3 hPa 0 mm - 785 W/m² -
1788370575 33.33° C 67% 1014.5 hPa 0 mm - 778 W/m² -
1788370270 33.33° C 62% 1014.7 hPa 0 mm - 743 W/m² -
1788369968 33.33° C 63% 1014.8 hPa 0 mm - 711 W/m² -
1788369663 33.33° C 63% 1014.8 hPa 0 mm - 713 W/m² -
1788369359 32.78° C 67% 1014.9 hPa 0 mm - 762 W/m² -
1788369055 33.33° C 65% 1015.1 hPa 0 mm - 779 W/m² -
1788368750 32.78° C 67% 1015.1 hPa 0 mm - 763 W/m² -
1788368446 32.22° C 66% 1015.1 hPa 0 mm - 712 W/m² -
1788368145 32.78° C 66% 1015.5 hPa 0 mm - 150 W/m² -
1788367840 32.78° C 67% 1015.5 hPa 0 mm - 740 W/m² -
1788367535 32.78° C 67% 1015.7 hPa 0 mm - 749 W/m² -

* Rain latest hour (hover to see other rain measurements)
** Current wind speed in m/s (hover to see current wind gust speed)